Temperature
25 24 23 23 22 21 20 20 20 19 19 19 19 19 19 19 19 19 19 18 18 18 18 18 18 18 18 18 18 18 18 18 18 18 18 18 19 19 19 19 18 18 18
25 24 24 23 22 21 20 20 20 20 19 19 19 19 19 19 19 19 19 19 19 19 18 19 18 18 18 18 18 18 18 18 18 18 18 18 19 19 19 19 18 18 18
26 25 24 23 22 21 21 20 20 20 20 19 19 19 19 19 19 19 19 19 19 19 19 19 18 18 18 18 18 18 18 18 18 18 18 18 18 18 19 19 18 18 18
26 25 24 23 23 22 21 21 20 20 20 20 20 19 19 19 19 19 19 19 19 19 19 19 19 19 19 18 18 18 18 18 18 18 18 18 18 18 18 18 18 18 18
27 25 24 23 23 22 22 21 21 20 20 20 20 20 19 19 19 19 19 19 19 19 19 19 19 19 19 18 18 18 18 18 18 18 18 18 18 18 18 18 18 18 18
27 26 25 24 23 23 22 21 21 21 20 20 20 20 20 19 19 19 19 19 19 19 19 19 19 19 18 18 18 18 18 18 18 18 18 18 18 18 18 18 18 18 18
27 26 25 24 23 23 22 22 21 21 20 20 20 20 20 20 20 19 19 19 19 19 19 19 19 19 18 18 18 18 18 18 18 18 18 18 18 18 18 18 18 18 18
27 26 25 24 24 23 22 22 21 21 21 20 20 20 20 20 19 19 19 19 19 19 19 19 19 18 18 18 18 18 18 18 18 18 18 18 18 18 18 17 17 17 17
28 27 26 25 24 23 22 22 21 21 21 20 20 20 20 20 19 19 19 19 19 19 19 19 18 18 18 18 18 18 18 17 17 17 17 17 17 17 17 17 17 17 17
28 27 26 25 24 24 23 22 22 21 21 21 20 20 20 20 20 19 19 19 19 19 19 18 18 18 18 18 18 18 17 17 17 17 17 17 17 17 17 17 17 17 17
28 27 26 25 24 24 23 22 21 21 21 21 20 20 20 20 20 19 19 19 19 19 18 18 18 18 18 18 18 17 17 17 17 17 17 17 17 17 17 17 17 17 17
27 27 26 25 24 24 23 22 22 21 21 21 20 20 20 20 20 19 19 19 19 18 18 18 18 18 18 18 17 17 17 17 17 16 16 16 16 16 16 16 16 16 16
27 26 25 24 24 23 23 22 22 21 21 21 20 20 20 20 19 19 19 19 19 18 18 18 18 18 17 17 17 17 17 17 17 16 16 16 16 16 16 16 16 16 16
26 25 25 24 23 23 22 22 21 21 21 20 20 20 20 19 19 19 19 19 18 18 18 18 18 18 17 17 17 17 17 17 16 16 16 16 16 16 15 15 15 15 15
25 25 24 23 23 22 22 21 21 21 21 20 20 20 19 19 19 19 19 18 18 18 18 18 18 18 17 17 17 17 16 16 16 16 16 16 16 15 15 15 15 15 15
25 24 23 23 22 22 21 21 21 20 20 20 20 19 19 19 19 19 18 18 18 18 18 18 18 17 17 17 17 17 16 16 16 16 16 15 15 15 15 15 15 15 15
24 24 23 22 22 21 21 21 20 20 20 19 19 19 19 19 19 18 18 18 18 18 18 17 17 17 17 17 16 16 16 16 15 15 15 15 15 15 15 15 15 15 15
24 23 23 22 22 21 21 20 20 20 19 19 19 19 19 18 18 18 18 18 17 17 17 17 17 17 17 17 16 16 16 15 15 15 15 15 15 15 15 15 15 15 15
23 23 23 22 22 21 21 20 20 19 19 19 18 18 18 18 18 18 17 17 17 17 17 17 17 17 17 17 16 16 16 15 15 15 15 15 15 15 14 14 14 14 14
22 22 22 21 21 21 20 20 19 19 19 18 18 18 18 18 17 17 17 17 17 17 17 17 17 16 16 16 16 16 15 15 15 15 15 15 15 15 14 14 14 14 14
22 21 21 21 20 20 20 19 19 19 18 18 18 17 17 17 17 17 17 17 17 16 16 16 16 16 16 16 16 16 15 15 14 14 14 14 14 14 14 14 14 14 14
21 21 20 20 20 19 19 19 18 18 18 18 17 17 17 17 17 17 17 16 16 16 16 16 16 16 15 16 16 16 15 15 14 14 14 14 14 14 14 14 14 14 14
20 20 20 19 19 19 18 18 18 18 17 17 17 17 17 17 17 16 16 16 16 16 16 15 15 15 15 15 15 15 15 14 14 14 14 14 14 14 14 14 14 14 13
19 19 19 19 18 18 18 17 17 17 17 17 17 16 16 16 16 16 16 16 16 16 15 15 15 15 15 15 15 15 14 14 14 14 14 14 14 13 13 13 14 14 13
18 18 18 18 17 17 17 17 17 17 16 16 16 16 16 16 16 16 16 16 16 16 15 15 15 15 15 15 15 14 14 14 13 13 13 13 13 13 13 13 13 13 13
18 17 17 17 17 17 16 16 16 16 16 16 16 16 16 16 16 16 16 16 16 16 16 15 15 15 15 14 14 14 14 13 13 13 13 13 13 13 13 13 13 13 13
Wind_Speed
12 11 10 11 10 9 8 6 5 4 2 2 2 2 2 2 3 3 4 3 2 1 2 1 1 1 1 2 2 1 1 0 1 0 1 1 1 1 2 1 1 1 3
12 11 10 10 10 9 8 6 6 5 3 2 1 1 2 2 3 2 4 3 2 2 2 1 1 1 1 1 1 1 1 1 0 1 1 1 1 1 1 2 2 1 1
14 13 11 10 10 10 9 7 6 5 4 3 2 2 1 1 2 2 3 2 2 2 2 1 1 1 0 0 1 1 2 2 2 1 1 0 1 1 1 1 1 2 1
14 13 12 11 10 10 10 8 7 6 5 4 3 3 3 2 2 2 3 2 2 2 2 1 1 1 1 1 2 1 2 2 2 1 1 1 0 1 1 2 0 1 2
13 13 13 12 10 10 10 9 7 6 5 4 3 2 2 2 2 2 3 2 2 2 1 2 1 0 1 1 2 2 3 2 3 3 2 1 1 2 2 2 1 1 1
11 13 13 11 10 10 10 10 8 6 6 5 4 3 2 1 0 0 1 2 2 2 2 2 1 0 1 1 1 2 2 2 3 3 3 2 1 1 1 2 2 1 1
10 11 12 12 10 10 9 9 9 7 6 6 4 3 2 1 1 2 2 1 1 2 1 1 1 1 1 1 1 1 2 2 3 3 3 3 3 2 2 1 2 2 2
10 11 13 12 11 10 9 10 9 8 7 6 4 3 3 2 2 2 1 1 0 1 2 1 1 0 1 1 1 1 1 1 2 3 3 3 3 3 2 1 1 2 2
10 10 12 12 11 10 9 10 10 8 7 6 5 4 3 2 1 1 1 1 1 1 2 1 1 1 0 1 1 1 2 2 2 2 2 3 3 3 3 3 2 2 2
8 9 8 9 10 10 9 9 9 8 6 5 4 5 4 3 2 1 1 1 0 1 1 0 0 1 1 1 1 2 1 2 2 2 2 3 3 4 3 3 3 2 2
6 8 9 8 8 9 9 9 8 8 7 6 5 4 4 4 3 3 2 1 1 1 1 1 1 1 1 1 1 2 2 2 2 3 2 3 3 3 4 3 3 3 2
5 6 8 8 7 8 8 8 7 7 7 6 5 4 4 4 4 3 3 2 2 2 1 1 1 2 1 1 1 2 2 2 2 2 3 3 3 4 4 4 4 3 3
6 6 6 6 6 6 6 6 6 7 6 6 7 5 5 4 4 3 2 2 2 2 2 2 2 2 2 1 2 2 2 3 2 2 3 3 3 4 4 4 4 4 3
6 5 6 5 5 4 5 5 4 4 5 4 5 5 5 5 4 3 3 3 3 3 2 2 2 2 2 1 1 2 2 2 2 2 3 3 3 3 4 4 4 4 4
6 6 6 5 4 4 4 4 4 3 3 4 3 3 4 3 3 3 3 2 3 3 2 2 2 2 2 2 1 2 3 2 3 3 2 2 2 3 4 4 4 4 4
5 5 6 5 4 4 4 4 4 3 3 4 3 3 3 3 2 2 2 2 2 2 2 3 2 2 4 3 2 3 3 3 3 3 2 3 2 2 3 4 4 4 4
4 4 4 4 4 4 4 4 4 4 4 3 2 2 2 2 2 2 2 2 2 2 3 3 3 3 2 2 2 3 3 3 3 2 2 4 3 2 3 4 4 4 5
2 2 3 3 4 4 4 4 4 4 3 3 3 2 2 2 2 2 2 2 2 3 3 3 3 3 3 3 3 4 4 4 3 2 2 2 2 3 3 4 3 3 4
1 0 1 2 2 2 3 3 3 4 3 3 2 2 2 2 2 3 3 3 3 3 3 3 3 3 3 4 4 4 3 3 3 3 3 3 3 4 4 3 3 3 3
1 1 0 1 1 1 2 3 3 3 3 3 2 2 2 2 2 3 3 3 3 3 3 3 3 3 3 4 4 3 3 3 4 4 4 5 4 3 3 3 3 4 4
1 1 2 2 2 2 2 3 3 3 3 2 2 2 2 3 2 3 3 3 3 3 3 3 3 3 4 4 4 5 3 3 4 4 3 3 4 4 4 4 4 6 5
1 1 2 2 2 2 2 2 2 1 2 2 2 2 2 3 3 2 3 3 3 3 4 4 4 3 3 3 4 5 5 4 4 4 3 3 3 5 6 5 6 7 6
1 1 1 2 1 1 1 1 1 1 1 2 2 3 3 2 2 3 3 4 4 4 4 4 3 3 2 2 3 5 6 6 5 4 4 4 4 4 5 7 7 6 5
1 1 0 0 0 0 0 1 1 2 2 2 2 2 2 3 3 3 3 3 3 3 3 3 3 3 2 0 0 1 3 4 5 5 5 5 5 5 5 4 4 4 4
1 1 1 0 0 0 1 1 1 1 1 2 2 3 4 4 3 2 3 3 2 2 3 3 2 2 2 1 2 1 2 3 3 3 3 3 2 3 4 4 4 4 3
1 1 0 0 0 1 0 1 1 1 2 2 3 4 4 3 3 3 3 2 4 4 4 3 2 1 2 2 2 3 4 4 4 3 4 4 4 4 4 3 3 3 3
Wind_Direction
159 157 154 148 145 140 139 144 137 137 162 147 149 142 139 153 135 135 125 124 118 92 105 47 71 95 65 52 17 12 291 241 183 324 300 263 240 193 181 186 193 166 152
157 157 158 157 152 147 147 149 150 158 172 135 134 162 157 157 135 117 128 144 153 166 135 117 16 99 128 84 289 315 314 299 271 280 287 290 334 302 213 176 183 179 168
165 163 165 165 159 157 160 167 163 160 168 158 171 157 154 135 122 143 146 153 163 133 70 61 40 356 56 350 305 333 300 293 290 283 283 285 285 313 308 259 166 166 183
166 168 170 170 169 166 164 155 158 160 162 174 192 187 175 165 169 163 136 163 166 153 153 135 80 353 21 358 305 30 310 285 291 282 246 219 195 275 314 300 297 193 195
168 169 172 171 174 169 163 157 155 157 163 184 193 204 209 182 167 149 142 173 166 162 160 141 147 349 13 2 17 7 335 336 338 326 313 292 239 243 237 276 283 270 223
166 167 167 166 172 169 164 159 155 159 165 184 191 200 226 228 130 188 161 201 175 160 142 146 146 66 14 357 4 333 348 354 342 327 323 316 307 293 271 264 266 265 243
160 165 165 164 169 170 165 155 153 162 171 182 188 183 213 211 227 250 237 241 190 141 125 121 105 48 17 315 335 325 350 1 341 326 325 325 314 310 316 283 291 296 268
157 164 165 164 168 168 162 157 155 162 172 178 177 179 185 199 220 223 269 267 324 99 119 117 114 105 315 324 322 310 319 338 314 316 332 321 314 309 311 289 291 298 298
153 165 163 164 168 167 166 164 158 163 171 171 160 160 173 197 235 196 214 280 350 128 105 122 160 203 230 318 323 314 319 320 308 312 329 318 303 304 308 301 299 277 294
153 154 159 165 165 166 164 162 159 161 163 162 173 173 178 191 199 207 245 256 22 16 98 137 257 270 252 241 261 278 271 291 309 310 323 320 320 325 312 311 304 281 265
144 149 154 152 157 157 158 158 157 160 167 173 177 176 178 183 186 198 219 226 255 275 243 252 267 262 258 276 283 290 299 292 299 306 316 316 315 318 317 315 310 306 297
134 140 145 152 162 158 159 158 161 163 170 171 174 184 182 182 192 202 206 213 225 237 232 245 272 271 261 247 262 277 291 293 295 303 310 313 319 322 314 315 311 311 308
121 123 127 141 150 151 150 154 157 163 169 173 181 184 186 186 195 208 204 210 225 237 242 235 245 258 265 260 268 271 279 284 294 299 295 306 314 315 315 309 304 304 304
118 119 112 117 123 129 134 140 150 160 162 168 184 182 186 182 192 206 204 202 214 228 236 245 248 243 244 263 273 285 275 287 302 303 301 304 304 308 307 300 301 303 298
114 108 110 116 133 141 140 142 154 159 162 167 186 175 171 165 180 195 203 205 218 233 234 239 253 248 229 253 251 264 259 266 279 284 287 298 325 333 322 310 316 312 301
122 124 125 128 143 152 148 149 157 161 168 180 186 169 169 165 181 197 205 216 230 243 245 242 239 248 257 252 231 243 265 254 255 260 264 256 267 292 294 301 309 305 296
120 120 132 140 149 155 158 167 166 167 176 183 174 161 172 183 195 224 218 227 243 253 255 250 234 241 256 257 254 265 256 264 264 254 263 276 287 282 290 285 278 288 295
118 139 157 153 161 157 163 181 169 171 176 183 176 169 178 206 212 224 236 240 246 248 249 253 250 248 256 249 244 260 247 261 254 246 250 265 285 298 309 300 302 301 308
79 129 173 164 155 174 169 165 180 181 183 191 190 192 199 215 218 226 235 238 247 253 250 254 246 241 250 247 238 235 246 250 247 238 247 252 250 281 302 293 297 298 294
51 36 74 138 141 145 151 168 195 192 194 197 199 212 220 236 233 240 244 249 249 247 250 254 254 244 239 234 220 217 249 259 256 246 237 243 247 266 277 276 282 287 292
75 63 73 90 120 135 152 183 203 210 199 184 191 211 228 247 234 243 246 251 257 255 253 257 255 244 228 210 203 202 236 262 266 259 246 241 231 237 244 254 267 271 280
25 98 93 105 115 135 157 186 203 207 178 178 202 210 225 254 254 254 259 252 248 248 242 246 255 254 228 194 197 207 231 275 277 273 274 270 242 241 241 246 266 274 280
30 52 95 105 105 117 137 210 211 193 188 192 215 231 234 250 274 255 256 255 245 246 251 246 249 259 252 212 201 219 239 260 275 297 304 293 254 257 247 243 255 262 263
24 21 63 120 56 34 204 248 238 201 217 223 229 237 239 248 257 253 255 257 268 274 272 271 267 272 265 266 220 235 248 256 267 286 293 272 252 258 267 260 248 247 257
12 5 19 55 42 10 234 238 255 213 217 240 247 252 252 246 250 247 265 262 271 265 276 297 303 296 289 310 3 331 296 286 278 282 266 254 255 253 249 242 242 244 245
13 17 18 43 48 43 283 252 257 228 219 247 260 267 270 262 248 243 253 259 239 226 218 213 231 243 212 221 253 272 275 275 288 282 262 259 256 260 262 255 254 251 257
Height
1517 1519 1522 1523 1525 1526 1527 1528 1529 1530 1531 1531 1532 1533 1534 1535 1535 1535 1535 1536 1536 1536 1536 1536 1536 1535 1535 1535 1535 1535 1535 1535 1535 1535 1535 1534 1534 1534 1534 1534 1534 1534 1534
1515 1518 1521 1523 1524 1525 1527 1528 1528 1529 1530 1531 1532 1534 1534 1535 1536 1536 1536 1536 1536 1536 1537 1536 1536 1536 1535 1535 1535 1535 1535 1535 1535 1535 1534 1534 1535 1533 1534 1533 1533 1533 1533
1513 1516 1519 1521 1523 1524 1526 1527 1528 1529 1530 1531 1532 1534 1535 1535 1536 1536 1536 1536 1537 1537 1536 1536 1536 1535 1536 1535 1535 1534 1534 1534 1534 1534 1534 1534 1533 1533 1533 1533 1532 1532 1531
1510 1514 1517 1520 1522 1523 1525 1526 1527 1528 1529 1531 1532 1533 1534 1535 1536 1536 1536 1536 1537 1536 1536 1536 1535 1535 1535 1535 1534 1534 1534 1534 1533 1533 1533 1533 1533 1533 1532 1532 1531 1531 1530
1507 1511 1515 1517 1520 1522 1524 1525 1526 1527 1529 1530 1531 1532 1534 1535 1535 1536 1536 1536 1536 1536 1536 1535 1535 1535 1534 1534 1534 1533 1533 1533 1533 1533 1532 1532 1532 1532 1532 1531 1531 1530 1529
1505 1509 1513 1516 1519 1521 1523 1524 1525 1526 1528 1529 1530 1532 1533 1534 1534 1535 1536 1536 1536 1536 1535 1535 1534 1534 1534 1533 1533 1532 1532 1532 1532 1531 1531 1531 1531 1530 1530 1529 1529 1528 1528
1503 1507 1510 1514 1517 1519 1521 1522 1523 1525 1526 1528 1529 1531 1532 1533 1533 1534 1535 1535 1535 1535 1535 1534 1534 1533 1533 1533 1532 1532 1531 1531 1530 1530 1530 1530 1529 1529 1529 1528 1527 1527 1526
1501 1505 1508 1512 1515 1517 1520 1521 1522 1524 1525 1527 1528 1530 1531 1532 1532 1533 1534 1534 1535 1534 1534 1533 1533 1532 1532 1532 1532 1531 1530 1530 1529 1529 1529 1528 1528 1528 1527 1527 1527 1525 1525
1500 1504 1507 1510 1513 1516 1518 1520 1521 1522 1524 1526 1527 1528 1529 1530 1531 1532 1533 1533 1533 1533 1533 1532 1532 1531 1531 1531 1530 1530 1529 1529 1528 1528 1527 1527 1526 1526 1526 1526 1525 1525 1524
1498 1501 1505 1509 1511 1514 1517 1519 1519 1521 1522 1524 1525 1527 1528 1529 1530 1531 1531 1532 1532 1532 1532 1531 1531 1530 1530 1530 1529 1529 1528 1528 1527 1527 1526 1525 1525 1524 1524 1524 1523 1523 1522
1497 1500 1505 1507 1510 1513 1515 1517 1518 1520 1521 1523 1524 1525 1526 1527 1528 1529 1530 1530 1530 1531 1530 1530 1530 1530 1529 1529 1528 1528 1527 1527 1526 1525 1525 1524 1523 1523 1522 1521 1521 1521 1520
1497 1500 1504 1507 1509 1512 1514 1516 1517 1519 1520 1521 1523 1524 1525 1526 1526 1527 1528 1528 1528 1529 1529 1529 1528 1528 1527 1527 1526 1526 1525 1525 1524 1524 1523 1522 1522 1521 1520 1519 1519 1518 1518
1497 1500 1503 1506 1508 1511 1512 1514 1516 1518 1519 1520 1521 1522 1523 1524 1525 1525 1526 1526 1526 1526 1527 1527 1526 1526 1525 1525 1524 1524 1523 1523 1522 1522 1521 1520 1519 1518 1518 1517 1516 1516 1515
1498 1500 1503 1506 1508 1509 1511 1513 1515 1517 1518 1519 1520 1521 1521 1522 1522 1523 1524 1524 1524 1524 1524 1524 1524 1523 1523 1522 1522 1521 1521 1520 1520 1519 1518 1518 1517 1516 1515 1514 1514 1513 1512
1498 1501 1503 1505 1507 1509 1511 1512 1514 1515 1516 1517 1518 1519 1520 1520 1521 1522 1522 1522 1522 1522 1521 1521 1521 1520 1520 1519 1519 1519 1518 1518 1517 1517 1516 1515 1515 1513 1513 1512 1511 1510 1509
1498 1501 1503 1505 1507 1508 1510 1511 1513 1514 1515 1516 1517 1517 1518 1518 1519 1519 1519 1519 1519 1519 1519 1518 1518 1517 1517 1517 1516 1516 1515 1515 1514 1514 1513 1513 1512 1511 1510 1509 1508 1507 1506
1499 1501 1503 1504 1506 1508 1509 1510 1511 1513 1514 1514 1515 1516 1516 1517 1517 1517 1517 1517 1517 1517 1516 1516 1515 1514 1514 1514 1513 1513 1512 1512 1512 1511 1511 1510 1509 1508 1507 1506 1505 1504 1503
1499 1500 1502 1503 1505 1506 1508 1509 1510 1511 1512 1513 1513 1514 1514 1515 1515 1515 1515 1515 1514 1514 1513 1513 1512 1511 1511 1511 1510 1510 1509 1509 1508 1508 1508 1507 1506 1505 1504 1503 1501 1500 1500
1498 1500 1501 1502 1503 1505 1506 1507 1509 1510 1510 1511 1511 1512 1512 1512 1512 1512 1512 1512 1511 1511 1510 1510 1509 1508 1508 1508 1507 1507 1506 1505 1505 1505 1504 1504 1503 1502 1501 1500 1498 1497 1496
1497 1499 1500 1501 1502 1503 1504 1505 1506 1507 1508 1508 1509 1509 1510 1510 1510 1510 1509 1509 1509 1508 1507 1507 1506 1505 1505 1504 1504 1503 1503 1502 1502 1501 1501 1500 1499 1498 1498 1497 1496 1494 1494
1496 1497 1498 1499 1500 1501 1502 1503 1504 1505 1505 1506 1507 1507 1508 1508 1508 1508 1507 1507 1506 1505 1505 1504 1503 1502 1502 1501 1500 1500 1499 1499 1498 1498 1497 1497 1496 1495 1494 1494 1493 1492 1491
1495 1496 1497 1497 1498 1499 1500 1501 1501 1502 1503 1504 1504 1505 1505 1506 1506 1505 1505 1504 1503 1502 1502 1501 1500 1500 1499 1498 1497 1496 1496 1496 1495 1494 1494 1494 1493 1492 1491 1490 1490 1489 1489
1495 1495 1496 1496 1497 1497 1498 1499 1499 1500 1500 1501 1502 1502 1502 1502 1502 1502 1502 1501 1500 1500 1499 1499 1498 1497 1496 1495 1494 1493 1492 1492 1492 1491 1491 1490 1490 1489 1488 1487 1487 1486 1486
1494 1494 1495 1495 1495 1496 1496 1497 1497 1498 1498 1499 1499 1499 1499 1499 1499 1499 1498 1498 1498 1497 1497 1496 1495 1494 1493 1492 1491 1490 1489 1489 1488 1488 1487 1487 1486 1485 1485 1484 1483 1483 1482
1494 1494 1494 1494 1494 1494 1494 1494 1495 1495 1495 1495 1496 1496 1496 1496 1496 1495 1495 1494 1494 1494 1494 1493 1492 1491 1490 1489 1488 1487 1486 1485 1485 1484 1483 1483 1483 1482 1481 1480 1479 1479 1479
1493 1493 1492 1492 1492 1492 1492 1492 1492 1492 1492 1492 1493 1493 1493 1493 1492 1492 1491 1490 1491 1491 1490 1489 1489 1488 1487 1486 1485 1485 1484 1483 1482 1481 1480 1480 1480 1479 1478 1477 1477 1476 1476